Dewpoint
9 6 5 7 9 6 5 5 4 7 8 5 29 35 31 40 52 51 54 56 57 57 58 58 58 59 59 61 61 61 61 61 60 58 56 53 52 50 50 50 50 51 50 49
7 4 8 10 8 7 6 5 5 6 6 4 4 6 23 28 46 51 52 54 57 58 59 60 61 61 62 61 62 61 61 59 59 59 56 54 51 49 49 48 48 48 48 48
4 5 8 8 9 8 8 5 4 -4 5 4 4 1 2 15 43 50 54 54 56 58 59 60 61 62 62 62 62 61 60 59 59 57 52 49 47 47 46 46 46 47 47 46
4 6 8 7 7 7 6 8 6 5 6 1 4 -12 0 7 21 44 51 54 55 57 59 59 60 62 62 62 62 62 60 59 58 54 53 52 53 50 48 47 46 46 47 46
4 5 7 8 7 9 6 10 9 9 7 5 4 1 -2 26 13 15 43 52 54 55 57 58 59 61 62 62 62 62 60 58 57 55 54 54 53 51 47 46 46 46 46 45
7 10 5 3 9 10 11 8 8 8 7 2 4 1 -1 12 21 14 30 49 52 53 55 57 58 59 61 62 61 61 59 58 56 54 54 54 53 48 46 46 46 45 45 44
11 10 11 9 6 10 8 7 3 0 1 -1 4 2 2 10 11 32 40 42 46 49 53 55 56 58 59 60 60 60 59 58 56 55 54 53 51 49 49 47 45 44 43 43
11 7 10 10 9 7 6 7 4 -4 -1 -2 4 -0 7 22 25 27 31 37 46 50 52 54 55 56 57 59 59 58 58 58 56 54 54 52 51 51 49 47 47 45 43 43
19 9 26 20 13 9 8 6 10 8 8 0 1 5 14 25 26 28 30 30 31 32 35 52 55 56 57 57 58 57 57 58 55 55 53 52 51 49 48 47 47 44 44 43
17 16 24 23 20 19 10 10 6 10 2 -2 3 7 13 24 25 26 27 29 29 29 30 31 38 55 56 57 57 58 58 57 55 54 53 52 51 49 47 47 45 44 43 42
16 22 20 23 21 19 12 9 13 10 9 -2 1 11 24 26 26 24 23 25 26 27 29 33 43 40 56 57 57 57 57 56 54 54 51 51 50 49 47 46 45 44 43 43
14 19 18 21 21 20 19 19 20 5 8 8 3 18 27 28 25 23 22 23 24 26 27 30 38 51 54 56 56 55 55 55 53 52 51 49 48 47 45 44 44 44 43 42
10 17 16 17 20 20 19 18 17 20 24 12 4 18 22 30 24 23 23 24 25 25 26 27 28 35 48 52 53 54 54 53 52 51 50 48 47 46 44 44 43 43 43 42
11 13 14 16 15 10 15 12 11 15 20 20 18 20 26 26 23 23 22 23 25 25 25 27 28 28 30 43 49 52 53 52 51 50 49 48 47 46 45 44 42 42 42 41
9 1 5 5 3 1 1 2 3 11 14 16 17 16 22 22 22 19 18 17 21 24 24 25 27 30 30 29 36 46 50 50 50 48 46 46 46 45 44 42 41 41 41 40
10 3 3 -1 3 4 1 2 5 10 12 12 12 12 21 20 16 14 15 15 16 18 24 25 26 28 30 30 30 30 43 47 49 48 46 45 44 43 42 41 41 41 40 40
8 6 5 -2 6 1 -7 3 3 5 15 11 2 13 18 15 11 11 12 15 15 15 16 22 27 27 30 31 30 30 32 42 45 47 45 43 43 42 42 41 40 40 40 40
7 7 2 2 4 -8 3 17 17 9 21 20 20 21 19 17 12 11 11 11 14 15 16 17 22 28 29 30 32 34 35 38 43 44 44 42 42 41 41 40 39 39 39 38
12 6 5 6 2 -2 8 14 15 16 20 27 21 22 19 17 18 15 10 9 11 17 18 19 19 23 28 30 33 37 36 39 42 42 42 41 41 41 40 39 38 38 37 37
12 11 6 7 5 2 7 14 15 17 13 23 24 22 21 14 17 12 12 11 10 13 20 20 19 16 20 28 31 34 39 40 41 41 41 41 40 40 39 39 38 37 37 36
10 10 8 7 7 5 15 10 15 12 12 20 20 22 22 11 10 11 17 11 11 12 15 21 18 15 16 22 29 31 33 33 37 40 41 40 40 40 39 39 38 37 37 35
-2 5 8 7 6 4 15 9 13 16 23 19 13 12 15 18 15 12 11 11 10 10 11 14 19 15 14 19 24 29 30 32 33 39 40 40 40 39 39 39 39 38 37 35
3 -1 4 6 4 10 12 11 11 15 9 12 12 7 9 11 14 11 11 11 11 11 10 12 17 17 14 16 19 24 29 30 33 35 39 40 40 40 40 39 39 38 36 35
2 6 4 1 1 8 14 11 7 6 9 9 9 5 9 11 13 13 12 12 12 11 11 10 16 17 14 13 19 22 27 29 33 36 38 40 40 40 40 39 38 37 36 34
6 5 3 3 4 7 7 7 7 7 7 10 8 8 8 9 8 8 8 9 10 11 12 12 12 15 14 15 16 21 24 29 32 34 39 40 40 40 39 38 37 36 36 35
11 7 5 4 3 5 4 4 6 7 9 9 9 8 9 10 10 10 11 12 12 14 15 14 13 14 13 13 15 21 25 27 32 33 35 36 41 40 39 38 38 38 37 34
Wind_Speed
7 14 25 22 17 4 9 5 6 4 3 1 8 19 19 6 14 15 18 22 24 26 22 21 22 21 22 20 20 20 19 18 18 16 13 9 9 9 8 7 8 8 8 7
7 27 15 11 10 12 8 7 7 6 8 3 6 12 16 6 10 21 22 21 23 21 20 22 23 24 23 25 22 21 20 21 19 16 12 8 12 8 9 8 7 7 8 8
18 3 20 15 13 12 7 12 10 8 1 2 3 13 13 8 8 7 14 19 20 25 27 25 26 25 23 23 25 24 23 25 21 18 16 12 11 9 8 10 9 7 7 7
14 9 13 17 17 14 13 15 10 8 4 6 6 9 15 11 17 11 16 19 22 23 26 26 26 26 26 24 21 25 24 24 21 22 20 24 22 18 11 14 10 10 9 8
11 14 18 16 17 16 8 11 16 7 7 2 4 4 5 4 19 24 12 19 21 23 26 27 30 30 29 25 24 22 23 23 22 23 22 22 17 11 13 12 15 9 8 8
7 2 11 15 11 22 13 9 6 4 4 9 12 11 4 7 10 16 13 12 19 23 25 27 27 25 25 24 22 22 25 25 23 24 23 23 20 16 15 15 14 12 9 9
3 5 4 7 12 12 9 12 7 7 8 9 6 9 3 15 12 10 12 12 6 13 16 17 20 22 22 24 21 19 22 26 25 25 24 22 20 20 20 19 16 17 13 11
16 11 11 5 8 11 20 19 10 10 10 10 6 7 1 8 11 14 18 16 14 7 6 14 18 19 20 21 20 21 23 24 22 22 20 17 16 13 13 17 15 12 13 13
2 10 2 3 2 12 8 16 6 7 3 7 5 6 4 10 19 22 22 21 19 17 15 9 11 16 19 22 22 21 18 17 18 20 19 18 17 17 16 14 15 10 11 14
5 2 1 2 2 4 8 14 11 6 10 8 4 6 5 7 13 17 22 21 20 20 19 14 10 16 19 21 21 20 21 21 16 17 17 16 17 15 16 17 16 15 14 16
10 3 2 1 6 3 7 9 3 7 6 17 11 5 3 6 10 13 15 17 19 21 20 21 18 11 17 15 15 15 17 19 22 22 20 18 16 16 16 17 17 17 17 17
6 4 2 4 6 11 6 3 2 17 15 8 12 6 7 7 9 10 13 15 18 20 22 23 23 21 1 8 12 14 15 15 15 15 17 19 19 19 19 18 18 18 19 17
12 4 1 4 3 4 7 7 8 1 1 12 20 8 5 5 8 12 14 15 17 20 23 25 27 25 20 8 0 6 11 13 16 18 17 16 17 18 18 19 19 19 19 19
8 4 5 2 3 5 2 7 11 5 3 5 1 18 6 6 9 13 15 14 16 20 23 24 25 24 22 17 9 2 7 12 16 18 20 21 21 21 20 18 20 19 20 20
8 5 8 5 7 6 7 11 7 3 2 1 11 10 4 5 7 10 11 13 17 20 23 24 23 22 21 20 18 10 5 10 14 17 19 21 22 22 22 22 21 20 21 21
6 4 9 7 5 6 11 9 8 6 5 7 9 4 4 6 6 11 13 16 20 21 20 21 22 22 20 18 18 16 11 10 12 15 16 17 19 21 22 21 25 23 22 21
4 3 1 5 11 11 13 4 10 4 5 6 12 5 7 8 10 12 12 15 17 18 19 19 20 21 21 20 19 17 15 12 12 14 14 16 19 20 22 24 23 23 22 21
5 5 2 4 3 7 3 6 5 6 7 7 10 8 7 7 10 11 11 12 13 15 17 17 16 16 20 22 23 21 14 13 13 13 14 16 17 20 21 22 24 22 23 23
16 11 4 4 9 11 1 0 1 2 6 4 6 4 3 2 14 4 9 10 11 11 13 14 17 18 20 24 27 22 9 7 10 12 14 14 20 17 18 20 21 21 21 20
9 15 12 8 5 7 1 1 1 2 7 4 4 1 3 2 8 4 4 7 11 12 11 14 16 17 20 21 23 25 13 4 9 10 13 14 16 19 22 21 20 17 18 20
6 7 18 16 9 7 4 3 2 11 3 5 3 3 2 1 2 2 4 6 7 9 13 12 14 16 17 18 18 19 16 17 17 9 11 14 17 17 17 18 19 18 17 18
13 8 10 15 13 16 9 5 9 4 3 4 3 1 2 6 8 7 9 8 8 10 13 13 12 14 16 15 16 14 15 15 16 13 12 15 17 17 19 21 20 23 22 19
21 17 8 12 9 4 7 5 2 3 6 7 8 7 6 10 12 13 13 14 12 11 12 12 12 13 15 14 13 14 12 13 18 10 12 15 17 18 20 21 21 20 22 23
25 9 17 16 21 19 12 18 19 13 14 17 13 11 8 10 11 14 16 16 15 17 15 13 12 13 15 16 13 11 12 12 12 17 12 15 17 18 18 18 19 20 22 23
23 21 28 31 25 17 21 21 23 27 27 20 15 15 15 14 17 17 18 21 21 18 16 14 15 15 16 15 17 12 10 10 11 13 10 13 14 16 16 19 21 23 25 27
23 28 26 26 17 21 27 28 30 30 27 24 25 25 20 18 18 18 19 19 20 19 17 16 17 18 18 17 19 16 10 9 9 6 5 9 9 13 16 17 17 20 18 25
Wind_Direction
184 193 202 193 198 154 172 184 204 229 247 286 215 227 245 226 216 210 199 194 194 200 197 191 194 189 192 181 182 180 169 162 155 150 152 154 161 158 148 150 151 160 153 148
158 219 200 184 171 192 201 210 228 275 263 224 245 245 243 224 232 222 211 201 199 195 191 184 188 189 180 180 175 180 180 170 170 169 166 164 159 171 154 150 147 154 148 144
200 204 178 174 176 174 192 207 213 218 87 216 263 263 265 258 247 219 209 204 194 189 189 185 186 192 189 193 183 177 182 180 179 168 144 129 119 130 150 158 152 147 147 141
214 190 162 189 189 178 193 211 206 203 193 219 205 242 246 254 264 225 207 192 192 190 191 188 186 190 191 194 196 187 186 184 181 172 172 173 181 176 185 168 155 150 149 145
201 179 183 181 192 178 201 185 199 204 206 210 193 240 233 243 243 250 209 199 195 192 189 192 193 193 195 188 187 183 186 186 185 185 185 183 187 176 151 148 146 150 146 144
188 166 182 204 176 179 149 110 92 93 156 234 201 211 236 232 251 254 264 209 201 197 196 197 198 195 194 192 183 184 187 193 189 191 189 191 180 161 152 157 163 158 158 147
185 190 185 143 160 186 164 158 156 183 196 224 168 187 270 333 336 296 320 335 280 207 203 203 198 196 195 194 188 184 191 199 193 194 192 191 180 171 170 169 165 161 162 161
201 213 191 177 182 181 187 187 174 188 189 192 134 198 119 356 28 47 50 46 35 349 254 214 207 203 199 194 188 190 196 199 191 194 192 185 174 165 169 162 163 173 166 160
195 214 314 216 171 174 182 206 170 104 58 161 173 130 224 25 37 35 31 36 28 19 11 302 250 218 203 201 197 197 205 208 189 189 176 176 166 162 161 156 155 157 159 151
341 232 48 319 123 74 187 159 190 202 185 184 181 168 148 38 37 34 32 24 18 14 9 355 317 247 227 218 208 192 194 196 184 178 178 174 167 161 153 150 156 160 161 154
354 287 164 153 23 175 170 190 181 185 193 206 172 189 159 91 60 46 34 26 18 14 10 4 349 298 233 218 198 184 186 188 180 174 166 166 165 162 160 159 158 165 159 161
341 318 329 92 81 72 72 63 49 213 197 210 201 151 118 104 64 43 35 26 22 20 16 17 21 29 38 202 195 184 175 173 175 171 167 165 163 162 162 163 161 170 163 163
333 14 237 122 212 59 49 34 23 224 20 195 205 170 106 91 62 47 36 28 26 22 22 22 23 28 25 25 52 193 183 174 165 164 165 163 167 168 168 164 163 166 157 163
356 324 5 331 30 349 336 356 5 17 151 146 195 146 93 52 28 25 33 33 34 31 25 23 22 18 16 12 358 252 189 180 172 174 173 172 172 171 167 164 167 163 164 166
17 315 337 304 305 311 287 294 317 346 51 171 140 147 113 53 38 29 29 34 38 33 27 22 18 15 10 3 358 337 247 187 185 184 180 180 175 169 164 166 169 164 167 171
342 303 336 301 339 316 290 273 263 245 238 260 245 217 130 89 63 42 32 31 36 33 28 21 16 15 7 357 347 332 300 248 206 197 193 178 170 170 168 169 165 165 168 172
271 238 206 269 339 328 281 277 231 203 158 194 217 133 139 103 80 53 41 39 33 28 27 23 16 11 2 354 341 322 304 263 229 220 193 175 171 171 169 164 166 170 167 173
235 209 228 276 319 244 2 16 237 191 122 105 110 109 111 132 108 70 48 41 32 21 17 18 15 7 6 2 351 325 288 238 224 220 207 169 173 175 170 170 175 170 169 176
214 217 226 222 222 304 184 41 89 183 162 107 163 114 57 30 194 85 38 32 21 12 9 7 6 5 3 9 6 359 350 222 216 220 207 186 171 173 171 173 173 170 168 172
197 214 210 199 226 230 324 152 9 132 230 133 126 112 26 7 187 157 7 9 12 3 357 357 1 5 7 3 17 23 11 299 249 233 220 199 182 177 175 173 169 172 175 184
179 192 209 217 233 261 217 212 183 207 158 132 116 113 24 176 79 337 294 328 347 352 346 341 352 1 2 360 5 26 20 11 340 268 223 209 195 184 183 169 164 164 175 185
226 210 208 221 231 248 198 170 212 99 130 168 185 100 291 256 274 294 304 299 313 327 339 336 330 344 352 354 354 5 20 2 353 321 230 213 204 188 180 172 170 167 170 187
248 225 206 202 217 268 188 189 151 183 265 248 242 259 259 263 259 270 283 285 292 304 316 322 306 318 336 339 345 336 349 352 357 325 249 223 211 203 192 180 179 180 180 185
247 220 238 250 248 242 238 268 283 276 267 263 240 253 266 260 248 263 280 279 281 296 303 310 297 292 309 327 320 323 326 336 354 340 252 231 215 202 199 197 190 188 193 195
236 249 253 255 254 260 266 269 275 274 279 262 248 244 253 259 268 274 279 283 281 276 284 292 296 275 286 308 307 307 316 325 349 5 320 238 219 206 199 201 201 203 203 197
227 234 233 243 253 249 264 268 262 260 256 250 254 255 250 261 268 275 273 274 274 271 274 277 285 280 278 294 297 287 287 304 312 349 341 342 268 214 206 208 214 227 221 209